Weather observations for the past three days for
Elmira, Elmira / Corning Regional Airport
Imperial (Metric)
Date Time (edt) Wind (mph) Vis. (mi.) Weather Sky Cond. Temperature (ºF) Relative Humidity Wind Chill (°F) Heat Index (°F) Pressure Precipitation (in)
Air Dwpt 6 hour altimeter (in) sea level (mb) 1 hr 3 hr 6 hr
Max. Min.
22 20:53 NE 6 10.00 A Few Clouds FEW070 79 72 79% 82 29.89 1011.4
22 19:53 Calm 10.00 Partly Cloudy SCT060 82 71.1 95 81 69% 86 29.9 1011.9
22 18:53 Calm 10.00 Partly Cloudy FEW050 SCT060 SCT080 84.9 72 65% 91 29.9 1011.5
22 17:53 N 6 10.00 Mostly Cloudy FEW070 BKN095 91 72 54% 99 29.88 1011.1
22 15:53 Calm 10.00 Fair CLR 93.9 68 43% 98 29.92 1012.4
22 14:53 NW 5 10.00 Fair CLR 93 66.9 42% 97 29.95 1013.2
22 13:53 W 8 10.00 Partly Cloudy SCT060 91 69.1 91.9 72 49% 96 29.96 1013.7
22 12:53 NW 7 10.00 A Few Clouds FEW055 FEW085 90 70 52% 95 29.99 1014.8
22 11:53 Vrbl 6 10.00 Mostly Cloudy SCT041 BKN075 89.1 72 57% 96 30.01 1015.5
22 10:53 SW 7 10.00 Fair CLR 84.9 75 72% 93 30.03 1016.0
22 09:53 Calm 10.00 Fair CLR 80.1 73 79% 84 30.04 1016.6
22 08:53 Calm 8.00 Mostly Cloudy BKN005 73 72 96% 30.06 1017.2
22 07:53 Calm 0.25 Fog VV002 71.1 70 72 70 96% 30.06 1017.5
22 06:53 Calm 0.15 Fog VV002 71.1 69.1 94% 30.07 1017.7
22 05:53 Calm 0.25 Fog VV002 70 69.1 97% 30.08 1017.9
22 04:53 Calm 0.25 Fog VV002 71.1 69.1 94% 30.07 1017.6
22 03:53 Calm 0.25 Fog VV002 71.1 70 96% 30.08 1017.7
22 02:53 Calm 0.25 Fog VV002 72 71.1 97% 30.08 1017.8
22 01:53 NW 3 0.50 Fog VV002 72 70 77 70 94% 30.1 1018.4
22 00:53 Calm 5.00 Fog/Mist OVC003 70 69.1 97% 30.11 1019.0
21 23:53 Calm 9.00 Fair CLR 73 70 90% 30.12 1019.0
21 22:53 Calm 3.00 Fog/Mist FEW090 71.1 69.1 94% 30.13 1019.5
21 21:53 Calm 7.00 Fair CLR 72 70 94% 30.12 1019.3
21 20:53 Calm 9.00 Fair CLR 73.9 72 94% 30.11 1018.9
21 19:53 Calm 10.00 Fair CLR 77 72 93 72 85% 78 30.11 1018.9 0.91
21 18:53 Calm 10.00 Fair CLR 77 71.1 82% 79 30.12 1019.2
21 17:53 Calm 10.00 Fair CLR 75 71.1 88% 75 30.12 1019.3 0.6
21 16:53 W 18 G 39 0.50 Thunderstorm Heavy Rain FEW009 SCT037 BKN055 75 70 84% 75 30.17 1021.1 0.31 0.31
21 15:53 N 13 10.00 Fair CLR 89.1 73.9 61% 98 30.11 1018.7
21 14:53 N 12 10.00 A Few Clouds FEW060 91 71.1 52% 98 30.11 1018.9
21 13:53 NW 5 10.00 Mostly Cloudy SCT060 BKN070 91.9 68 91.9 72 46% 96 30.13 1019.5 0.07
21 12:53 SE 3 10.00 Mostly Cloudy FEW047 SCT070 BKN100 82.9 75 77% 90 30.16 1020.7 0.07
21 11:53 Calm 10.00 Fair CLR 89.1 70 53% 94 30.18 1021.0
21 10:53 SW 7 10.00 Fair CLR 87.1 72 61% 94 30.2 1021.6
21 09:53 NW 3 10.00 Fair CLR 82 72 72% 87 30.2 1022.0
21 08:53 SW 5 10.00 Fair CLR 77 71.1 82% 79 30.22 1022.5
21 07:53 Calm 5.00 Fog/Mist OVC002 72 70 72 66.9 94% 30.23 1023.0
21 06:53 SW 6 3.00 Fog/Mist OVC002 71.1 70 96% 30.22 1022.6
21 05:53 SW 5 0.50 Fog OVC002 71.1 69.1 94% 30.23 1022.7
21 04:53 W 3 0.50 Fog VV002 70 69.1 97% 30.22 1022.7
21 03:53 W 3 9.00 Partly Cloudy SCT003 69.1 66.9 93% 30.23 1023.0
21 02:53 Calm 9.00 Fair CLR 72 69.1 91% 30.23 1023.0
21 01:53 Calm 9.00 Fair CLR 72 69.1 84 70 91% 30.24 1023.3
21 00:53 Calm 10.00 Fair CLR 73 70 90% 30.25 1023.4
20 23:53 Calm 10.00 Fair CLR 73.9 70 88% 30.26 1023.9
20 22:53 W 5 10.00 Fair CLR 75.9 71.1 85% 76 30.25 1023.7
20 21:53 Calm 10.00 Fair CLR 75 71.1 88% 75 30.25 1023.6
20 20:53 W 3 10.00 Fair CLR 79 73 82% 82 30.23 1023.0
20 19:53 SW 6 10.00 Fair CLR 82 73.9 93 81 77% 88 30.24 1023.2 0.02
20 18:53 N 3 10.00 Fair CLR 88 73 61% 96 30.24 1023.1
20 17:53 Calm 10.00 A Few Clouds FEW050 84.9 73.9 70% 92 30.25 1023.5
20 16:53 SW 3 10.00 Fair CLR 82 75.9 82% 89 30.25 1023.6 0.02
20 15:53 Calm 10.00 Light Rain BKN049 OVC090 81 73.9 79% 86 30.28 1024.6 0.02
20 14:53 Calm 10.00 A Few Clouds FEW043 FEW055 90 72 56% 97 30.27 1024.2
20 13:53 Vrbl 6 10.00 A Few Clouds FEW042 91.9 73.9 91.9 75.9 56% 102 30.28 1024.5
20 12:53 Vrbl 3 10.00 Fair CLR 90 73 58% 98 30.29 1025.0
20 11:53 W 5 10.00 Fair CLR 87.1 72 61% 94 30.31 1025.7
20 10:53 Calm 10.00 Fair CLR 84.9 71.1 63% 90 30.31 1025.5
20 09:53 SE 5 10.00 Fair CLR 82.9 71.1 67% 88 30.32 1025.9
20 08:53 S 5 10.00 Fair CLR 80.1 72 76% 84 30.32 1026.1
20 07:53 Calm 9.00 Fair CLR 75 71.1 75.9 69.1 88% 75 30.33 1026.3
20 06:53 Calm 9.00 Fair CLR 73.9 70 88% 30.32 1025.7
20 05:53 Calm 4.00 Fog/Mist CLR 71.1 69.1 94% 30.3 1025.3
20 04:53 S 3 9.00 Fair CLR 73 70 90% 30.3 1025.1
20 03:53 Calm 10.00 Fair CLR 73 70 90% 30.29 1024.8
20 02:53 Calm 9.00 Fair CLR 73.9 71.1 91% 30.29 1025.0
20 01:53 Calm 10.00 Fair CLR 73.9 71.1 88 73 91% 30.3 1025.3
20 00:53 Calm 10.00 Fair CLR 75 70 84% 75 30.32 1025.8
19 23:53 Calm 10.00 Fair CLR 73 70 90% 30.32 1025.9
19 22:53 Calm 10.00 Fair CLR 80.1 70 71% 83 30.3 1025.3
19 21:53 SW 6 10.00 Fair CLR 84 71.1 65% 89 30.29 1024.8
Date Time (edt) Wind (mph) Vis. (mi.) Weather Sky Cond. Air Dwpt Max. Min. Relative Humidity Wind Chill (°F) Heat Index (°F) altimeter (in) sea level (mb) 1 hr 3 hr 6 hr
6 hour
Temperature (ºF) Pressure Precipitation (in)